Kalispell, MT

5:31 AM MDT on May 23, 2017 (GMT -0600)
Glacier Park International

Weather History for KGPI - March, 2014

Change the Weather History Date:

Saturday, March 1, 2014

  Actual Average Record
Temperature  
Mean Temperature 2 °F 30 °F  
Max Temperature 6 °F 40 °F 58 °F (1905)
Min Temperature -3 °F 20 °F -7 °F (1960)
Degree Days  
Heating Degree Days 63 35  
Month to date heating degree days 63 35  
Since 1 July heating degree days 5997 5887  
Cooling Degree Days 0 0  
Month to date cooling degree days 0 0  
Year to date cooling degree days 0 0  
Moisture  
Dew Point -13 °F    
Average Humidity 55    
Maximum Humidity 69    
Minimum Humidity 40    
Precipitation  
Precipitation T in 0.04 in 0.32 in (1973)
Month to date precipitation T 0.04  
Year to date precipitation 2.44 2.34  
Snow  
Snow T in - - ()
Month to date snowfall T  
Year to date snowfall 25.2  
Since 1 July snowfall 58.7  
Snow Depth 1.00 in    
Sea Level Pressure  
Sea Level Pressure 30.25 in    
Wind  
Wind Speed 18 mph (NNE)    
Max Wind Speed 30 mph    
Max Gust Speed 38 mph    
Visibility 8 miles    
Events Snow    
T = Trace of Precipitation, MM = Missing Value Source: NWS Daily Summary

Daily Weather History Graph

Daily Weather History Graph

Search for Another Location

Airport or City:

Trip Planner

Search our weather history database for the weather conditions in past years. The results will help you decide how hot, cold, wet, or windy it might be!

Date:

Astronomy

Mar. 01, 2014 Rise Set
Actual Time 7:18 AM MST 6:21 PM MST
Civil Twilight 6:46 AM MST 6:52 PM MST
Nautical Twilight 6:10 AM MST 7:28 PM MST
Astronomical Twilight 5:34 AM MST 8:05 PM MST
Moon 7:09 AM MST (3/1) 7:20 PM MST (3/1)
Length of Visible Light 12h 05m
Length of Day
11h 03m
New Moon, 0% of the Moon is Illuminated
Mar 1
New Moon
Mar 8
First Quarter
Mar 16
Full
Mar 23
Last Quarter
Mar 30
New

Hourly Weather History & Observations

Time (MST) Temp. Windchill Dew Point Humidity Pressure Visibility Wind Dir Wind Speed Gust Speed Precip Events Conditions
1:55 AM 3.0 °F -19.7 °F -16.1 °F 41% 30.25 in 10.0 mi NE 24.2 mph 32.2 mph N/A   Overcast
2:55 AM 1.9 °F -21.2 °F -17.0 °F 41% 30.24 in 10.0 mi NNE 24.2 mph 34.5 mph N/A   Overcast
3:55 AM 1.0 °F -21.4 °F -17.0 °F 43% 30.26 in 10.0 mi NNE 21.9 mph - N/A   Overcast
4:55 AM 1.0 °F -19.3 °F -16.1 °F 45% 30.25 in 10.0 mi NE 17.3 mph 25.3 mph N/A   Overcast
5:55 AM -0.0 °F -22.9 °F -16.1 °F 47% 30.26 in 10.0 mi NNE 21.9 mph - N/A   Overcast
6:55 AM -0.0 °F -20.7 °F -17.0 °F 45% 30.26 in 10.0 mi NE 17.3 mph 29.9 mph N/A   Overcast
7:55 AM -0.0 °F -20.1 °F -17.0 °F 45% 30.27 in 10.0 mi NE 16.1 mph 26.5 mph N/A   Overcast
8:55 AM -0.0 °F -21.3 °F -16.1 °F 47% 30.30 in 10.0 mi NE 18.4 mph - N/A   Overcast
9:55 AM 1.0 °F -19.9 °F -16.1 °F 45% 30.30 in 10.0 mi NNE 18.4 mph - N/A   Overcast
10:55 AM 1.9 °F -17.5 °F -15.0 °F 45% 30.29 in 10.0 mi NNE 16.1 mph 29.9 mph N/A   Overcast
11:55 AM 3.9 °F -8.2 °F -17.0 °F 38% 30.29 in 10.0 mi NE 6.9 mph - N/A   Clear
12:55 PM 5.0 °F -9.1 °F -15.0 °F 39% 30.27 in 10.0 mi North 9.2 mph - N/A   Clear
1:55 PM 5.0 °F -12.3 °F -13.0 °F 43% 30.26 in 10.0 mi NE 13.8 mph - N/A   Overcast
2:55 PM 6.1 °F -10.9 °F -13.0 °F 41% 30.25 in 10.0 mi NNE 13.8 mph 18.4 mph N/A   Overcast
3:55 PM 5.0 °F -14.2 °F -9.9 °F 50% 30.25 in 10.0 mi NNE 17.3 mph - N/A   Overcast
4:55 PM 1.9 °F -19.8 °F -9.0 °F 60% 30.26 in 3.0 mi NNE 20.7 mph - 0.00 in Snow Light Snow
5:13 PM 1.9 °F -18.7 °F -8.0 °F 63% 30.05 in 2.5 mi NNE 18.4 mph - 0.00 in Snow Light Snow
5:47 PM 1.0 °F -20.9 °F -8.0 °F 66% 30.05 in 3.0 mi NNE 20.7 mph - 0.00 in Snow Light Snow
5:55 PM 1.0 °F -19.9 °F -8.0 °F 66% 30.27 in 3.0 mi NNE 18.4 mph - 0.00 in Snow Light Snow
6:55 PM -0.0 °F -21.8 °F -9.0 °F 66% 30.27 in 8.0 mi NNE 19.6 mph - 0.00 in   Overcast
7:55 PM -0.0 °F -22.9 °F -11.9 °F 57% 30.28 in 10.0 mi NNE 21.9 mph 31.1 mph N/A   Overcast
8:55 PM -0.9 °F -23.5 °F -13.0 °F 57% 30.27 in 10.0 mi NNE 20.7 mph - N/A   Overcast
9:55 PM -2.0 °F -25.0 °F -11.9 °F 63% 30.27 in 4.0 mi NNE 20.7 mph - 0.00 in Snow Light Snow
10:55 PM -2.0 °F -23.3 °F -11.0 °F 66% 30.26 in 4.0 mi NNE 17.3 mph 26.5 mph 0.00 in Snow Light Snow
11:55 PM -2.9 °F -25.0 °F -11.9 °F 65% 30.25 in 6.0 mi NNE 18.4 mph - 0.00 in Snow Light Snow